Hourly Weather Roundup
Issued by NWS Central Illinois

Home | Current Version | Previous Version | Text Only | Print | Product List | Glossary On
Versions: 1 2 3 4 5 6 7 8 9 10 11 12 13 14 15 16 17 18 19 20 21 22 23 24 25 26 27 28 29 30 31 32 33 34 35 36 37 38 39 40 41 42 43 44 45 46 47 48 49 50
000
NZUS43 KILX 041010
HWRILX

AREA WEATHER ROUNDUP
NATIONAL WEATHER SERVICE, LINCOLN IL
500 AM CDT TUE AUG 04 2015


CITY           SKY/WX    TMP DP  RH WIND       PRES   REMARKS
BLOOMINGTON    CLEAR     65  57  75 NW5       29.98R
CHAMPAIGN      CLEAR     58  56  93 SW3       29.96R
DANVILLE       CLEAR     55  55  98 CALM      29.93R
DECATUR        CLEAR     64  60  87 SW3       29.97R
EFFINGHAM      CLOUDY    68  63  85 CALM      29.98R
FLORA          PTCLDY    70  66  87 CALM      29.96S
GALESBURG      PTCLDY    57  56  98 CALM      29.97R
JACKSONVILLE   MOCLDY    65  63  93 CALM      29.98R
LACON          CLEAR     58  56  91 CALM      29.95S
LAWRENCEVILLE  PTCLDY    71  64  78 CALM      29.95S
LITCHFIELD     CLOUDY    68  63  83 CALM      29.97S
$$


CITY           SKY/WX    TMP DP  RH WIND       PRES   REMARKS
LINCOLN        CLEAR     62  58  88 S3        29.97R
MACOMB         PTCLDY    58  57  97 SW3       30.00R
MATTOON        MOCLDY    65  59  81 CALM      29.96R
MT CARMEL AP   MOCLDY    70  66  88 CALM      29.96R
OLNEY-NOBLE AP CLOUDY    68  66  94 CALM      29.96S
PARIS          CLEAR     57  56  99 CALM      29.97S
PEORIA         CLEAR     63  57  81 CALM      29.97R
PONTIAC        CLEAR     60  58  94 CALM      29.97R
RANTOUL        CLEAR     61  57  88 W5        29.96R
ROBINSON       MOCLDY    65  64  96 CALM      29.96S
SPRINGFIELD    CLEAR     62  59  90 CALM      29.98R
TAYLORVILLE    CLOUDY    64  63  94 CALM      29.97S
$$

...REGIONAL REPORTS...


CITY           SKY/WX    TMP DP  RH WIND       PRES   REMARKS
CHICAGO O`HARE CLEAR     63  55  75 W3        29.92S
KANKAKEE       CLEAR     59  57  91 W5        29.95S
MOLINE         CLEAR     59  55  87 SW5       29.95S
MOUNT STERLING NOT AVBL
MOUNT VERNON   MOCLDY    70  63  78 N3        29.96S
PITTSFIELD     CLOUDY    68  65  90 CALM      29.99R
QUINCY         CLOUDY    65  61  87 CALM      29.97R
ROCKFORD       CLEAR     57  53  86 CALM      29.95S
$$


CITY           SKY/WX    TMP DP  RH WIND       PRES   REMARKS
BURLINGTON     CLOUDY    63  59  87 S3        29.97R
CEDAR RAPIDS   CLEAR     56  56 100 CALM      29.95S
DES MOINES     PTCLDY    68  59  73 CALM      29.96R
KIRKSVILLE     CLOUDY    67  63  87 E6        29.97F
OTTUMWA        MOCLDY    63  61  93 CALM      29.96R
ST LOUIS       CLOUDY    77  65  66 NE7       29.96R
$$


CITY           SKY/WX    TMP DP  RH WIND       PRES   REMARKS
TERRE HAUTE    CLOUDY    63  61  93 CALM      29.96R
EVANSVILLE     PTCLDY    73  68  84 CALM      29.95S
INDIANAPOLIS   CLEAR     65  57  75 CALM      29.94S
LAFAYETTE      CLEAR     55  54  96 CALM      29.94R
MADISON        CLEAR     57  51  80 CALM      29.91S
MILWAUKEE      CLEAR     64  51  62 W6        29.91S
$$





USA.gov is the U.S. government's official web portal to all federal, state and local government web resources and services.